This is the latest recevied weather packets stored in our database for station/object DK4DAX-2. If no packets are shown the sender has not sent any weather packets the latest 10 day(s).
| Time | Temp. | Humidity | Pressure | Rain* | Wind** | Luminosity | Snow |
|---|---|---|---|---|---|---|---|
| 1787879703 | 22.78° C | 71% | 1005.7 hPa | 0 mm | - | - | - |
| 1787878804 | 22.78° C | 71% | 1005.8 hPa | 0 mm | - | - | - |
| 1787877903 | 23.33° C | 69% | 1005.7 hPa | 0 mm | - | - | - |
| 1787877003 | 23.33° C | 67% | 1005.8 hPa | 0 mm | - | - | - |
| 1787876104 | 23.89° C | 62% | 1006.4 hPa | 0 mm | - | - | - |
| 1787875204 | 24.44° C | 59% | 1006.2 hPa | 0 mm | - | - | - |
| 1787874303 | 24.44° C | 58% | 1006.1 hPa | 0 mm | - | - | - |
| 1787873403 | 25° C | 59% | 1006.3 hPa | 0 mm | - | - | - |
| 1787872504 | 25° C | 57% | 1006.3 hPa | 0 mm | - | - | - |
| 1787871603 | 25.56° C | 55% | 1006.3 hPa | 0 mm | - | - | - |
| 1787870704 | 25.56° C | 54% | 1005.8 hPa | 0 mm | - | - | - |
| 1787869803 | 26.11° C | 55% | 1005.5 hPa | 0 mm | - | - | - |
| 1787868903 | 26.11° C | 54% | 1004.6 hPa | 0 mm | - | - | - |
| 1787868004 | 25.56° C | 56% | 1004.6 hPa | 0 mm | - | - | - |
| 1787867104 | 25.56° C | 58% | 1004.5 hPa | 0 mm | - | - | - |
| 1787866203 | 25.56° C | 59% | 1004.6 hPa | 0 mm | - | - | - |
| 1787865303 | 25.56° C | 59% | 1004.6 hPa | 0 mm | - | - | - |
| 1787864404 | 25.56° C | 58% | 1004.5 hPa | 0 mm | - | - | - |
| 1787863504 | 26.11° C | 56% | 1004.6 hPa | 0 mm | - | - | - |
| 1787862603 | 26.11° C | 56% | 1004.5 hPa | 0 mm | - | - | - |
| 1787861703 | 26.11° C | 57% | 1004.8 hPa | 0 mm | - | - | - |
| 1787860804 | 26.67° C | 55% | 1005.1 hPa | 0 mm | - | - | - |
| 1787859903 | 27.22° C | 50% | 1005.2 hPa | 0 mm | - | - | - |
| 1787859003 | 27.22° C | 47% | 1005.3 hPa | 0 mm | - | - | - |
| 1787858103 | 27.22° C | 44% | 1005.4 hPa | 0 mm | - | - | - |
* Rain latest hour (hover to see other rain measurements)
** Current wind speed in m/s (hover to see current wind gust speed)